Wetterdaten: aktuell Mittwoch, 20.06.2018 07:40
Datum Zeit Temp. A. Aussen2m Boden Feuchte A. Feuchte 2 Luftdruck Regen Wind Richtung Richtung Sonnenschein
20.06.2018 07:40 19,1 C 19,2 C 10,8 C 81 % 85 % 1019,7 hPa 0,0 l/m 7,3 km/h (2 Bft) SW 225 0 min
20.06.2018 07:35 19,1 C 19,2 C 10,8 C 81 % 86 % 1019,7 hPa 0,0 l/m 7,3 km/h (2 Bft) SW 225 0 min
20.06.2018 07:30 19,1 C 19,1 C 10,8 C 81 % 86 % 1019,7 hPa 0,0 l/m 7,3 km/h (2 Bft) SW 225 0 min
20.06.2018 07:25 19,0 C 19,0 C 10,8 C 81 % 86 % 1019,7 hPa 0,0 l/m 3,0 km/h (1 Bft) S-SW 210 0 min
20.06.2018 07:20 19,0 C 19,0 C 10,8 C 81 % 86 % 1019,7 hPa 0,0 l/m 3,0 km/h (1 Bft) S-SW 210 0 min
20.06.2018 07:15 18,8 C 18,9 C 10,8 C 82 % 86 % 1019,7 hPa 0,0 l/m 3,6 km/h (1 Bft) SW 225 0 min
20.06.2018 07:10 18,7 C 18,8 C 10,8 C 81 % 86 % 1019,7 hPa 0,0 l/m 6,1 km/h (2 Bft) W-SW 245 0 min
20.06.2018 07:05 18,7 C 18,8 C 10,8 C 81 % 86 % 1019,7 hPa 0,0 l/m 6,1 km/h (2 Bft) W-SW 245 0 min
20.06.2018 07:00 18,7 C 18,7 C 10,8 C 82 % 86 % 1019,7 hPa 0,0 l/m 4,8 km/h (1 Bft) SW 225 0 min
20.06.2018 06:55 18,7 C 18,7 C 10,8 C 82 % 86 % 1019,7 hPa 0,0 l/m 4,8 km/h (1 Bft) SW 225 0 min
20.06.2018 06:50 18,6 C 18,6 C 10,8 C 82 % 86 % 1019,7 hPa 0,0 l/m 3,0 km/h (1 Bft) S-SW 210 0 min
20.06.2018 06:45 18,6 C 18,6 C 10,8 C 82 % 86 % 1019,7 hPa 0,0 l/m 3,0 km/h (1 Bft) S-SW 210 0 min
20.06.2018 06:40 18,6 C 18,6 C 10,8 C 82 % 86 % 1019,7 hPa 0,0 l/m 3,0 km/h (1 Bft) S-SW 210 0 min
20.06.2018 06:35 18,6 C 18,6 C 10,8 C 82 % 86 % 1018,7 hPa 0,0 l/m 3,0 km/h (1 Bft) S-SW 210 0 min
20.06.2018 06:30 18,6 C 18,7 C 10,8 C 82 % 86 % 1018,7 hPa 0,0 l/m 3,0 km/h (1 Bft) S-SW 210 0 min
20.06.2018 06:25 18,6 C 18,7 C 10,8 C 82 % 85 % 1018,7 hPa 0,0 l/m 3,0 km/h (1 Bft) S-SW 210 0 min
20.06.2018 06:20 18,6 C 18,7 C 10,8 C 81 % 85 % 1019,7 hPa 0,0 l/m 6,7 km/h (2 Bft) S-SO 150 0 min
20.06.2018 06:15 18,6 C 18,6 C 10,8 C 81 % 85 % 1019,7 hPa 0,0 l/m 6,7 km/h (2 Bft) S-SO 150 0 min
20.06.2018 06:10 18,6 C 18,6 C 10,8 C 81 % 85 % 1019,7 hPa 0,0 l/m 6,7 km/h (2 Bft) S-SO 150 0 min
20.06.2018 06:05 18,6 C 18,6 C 10,8 C 81 % 85 % 1019,7 hPa 0,0 l/m 6,7 km/h (2 Bft) S-SO 150 0 min
20.06.2018 06:00 18,6 C 18,6 C 10,8 C 81 % 85 % 1019,7 hPa 0,0 l/m 6,7 km/h (2 Bft) S-SO 150 0 min
20.06.2018 05:55 18,6 C 18,6 C 10,8 C 81 % 85 % 1019,7 hPa 0,0 l/m 6,7 km/h (2 Bft) S-SO 150 0 min
20.06.2018 05:50 18,6 C 18,6 C 10,8 C 81 % 85 % 1019,7 hPa 0,0 l/m 6,7 km/h (2 Bft) S-SO 150 0 min
20.06.2018 05:45 18,4 C 18,6 C 10,8 C 81 % 85 % 1019,7 hPa 0,0 l/m 2,4 km/h (1 Bft) SW 225 0 min
20.06.2018 05:40 18,4 C 18,6 C 10,8 C 81 % 85 % 1019,7 hPa 0,0 l/m 2,4 km/h (1 Bft) SW 225 0 min
20.06.2018 05:35 18,4 C 18,5 C 10,8 C 81 % 85 % 1018,7 hPa 0,0 l/m 2,4 km/h (1 Bft) SW 225 0 min
20.06.2018 05:30 18,4 C 18,5 C 10,8 C 81 % 85 % 1018,7 hPa 0,0 l/m 2,4 km/h (1 Bft) SW 225 0 min
20.06.2018 05:25 18,4 C 18,5 C 10,8 C 81 % 85 % 1018,7 hPa 0,0 l/m 2,4 km/h (1 Bft) SW 225 0 min
20.06.2018 05:20 18,4 C 18,5 C 10,8 C 81 % 85 % 1019,7 hPa 0,0 l/m 2,4 km/h (1 Bft) SW 225 0 min
20.06.2018 05:15 18,4 C 18,4 C 10,8 C 81 % 85 % 1019,7 hPa 0,0 l/m 2,4 km/h (1 Bft) SW 225 0 min
20.06.2018 05:10 18,4 C 18,4 C 10,8 C 81 % 85 % 1019,7 hPa 0,0 l/m 2,4 km/h (1 Bft) S 190 0 min
20.06.2018 05:05 18,4 C 18,4 C 10,8 C 81 % 85 % 1019,7 hPa 0,0 l/m 6,1 km/h (2 Bft) SW 220 0 min
20.06.2018 05:00 18,4 C 18,4 C 10,8 C 81 % 86 % 1019,7 hPa 0,0 l/m 4,2 km/h (1 Bft) W-SW 240 0 min
20.06.2018 04:55 18,4 C 18,4 C 10,8 C 81 % 85 % 1019,7 hPa 0,0 l/m 2,4 km/h (1 Bft) W 265 0 min
20.06.2018 04:50 18,5 C 18,4 C 10,8 C 81 % 86 % 1019,7 hPa 0,0 l/m 4,8 km/h (1 Bft) SW 215 0 min
20.06.2018 04:45 18,5 C 18,4 C 10,8 C 81 % 86 % 1019,7 hPa 0,0 l/m 5,4 km/h (2 Bft) SW 225 0 min
20.06.2018 04:40 18,5 C 18,4 C 10,8 C 81 % 86 % 1019,7 hPa 0,0 l/m 4,8 km/h (1 Bft) SW 230 0 min
20.06.2018 04:35 18,5 C 18,5 C 10,8 C 81 % 86 % 1020,7 hPa 0,0 l/m 3,0 km/h (1 Bft) SW 220 0 min
20.06.2018 04:30 18,5 C 18,4 C 10,8 C 81 % 86 % 1020,7 hPa 0,0 l/m 2,4 km/h (1 Bft) W 265 0 min
20.06.2018 04:25 18,5 C 18,5 C 10,8 C 80 % 85 % 1020,7 hPa 0,0 l/m 3,6 km/h (1 Bft) W-SW 240 0 min
20.06.2018 04:20 18,6 C 18,5 C 10,8 C 80 % 85 % 1020,7 hPa 0,0 l/m 3,6 km/h (1 Bft) W 270 0 min
20.06.2018 04:15 18,6 C 18,6 C 10,8 C 80 % 85 % 1020,7 hPa 0,0 l/m 2,4 km/h (1 Bft) W-SW 245 0 min
20.06.2018 04:10 18,6 C 18,6 C 10,8 C 80 % 85 % 1020,7 hPa 0,0 l/m 3,6 km/h (1 Bft) SW 220 0 min
20.06.2018 04:05 18,6 C 18,6 C 10,8 C 80 % 85 % 1020,7 hPa 0,0 l/m 3,6 km/h (1 Bft) SW 220 0 min
20.06.2018 04:00 18,6 C 18,6 C 10,8 C 80 % 85 % 1020,7 hPa 0,0 l/m 2,4 km/h (1 Bft) W-SW 250 0 min
20.06.2018 03:55 18,7 C 18,6 C 10,8 C 80 % 85 % 1020,7 hPa 0,0 l/m 0,6 km/h (0 Bft) W 260 0 min
20.06.2018 03:50 18,7 C 18,6 C 10,8 C 80 % 85 % 1020,7 hPa 0,0 l/m 0,6 km/h (0 Bft) W 260 0 min
20.06.2018 03:45 18,7 C 18,7 C 10,8 C 80 % 85 % 1020,7 hPa 0,0 l/m 2,4 km/h (1 Bft) SW 235 0 min
20.06.2018 03:40 18,8 C 18,7 C 10,8 C 80 % 85 % 1020,7 hPa 0,0 l/m 2,4 km/h (1 Bft) SW 220 0 min
20.06.2018 03:35 18,8 C 18,7 C 10,8 C 80 % 85 % 1019,7 hPa 0,0 l/m 2,4 km/h (1 Bft) SW 220 0 min
20.06.2018 03:30 18,8 C 18,7 C 10,8 C 80 % 85 % 1019,7 hPa 0,0 l/m 0,0 km/h (0 Bft) SW 215 0 min
20.06.2018 03:25 18,9 C 18,7 C 10,8 C 80 % 85 % 1019,7 hPa 0,0 l/m 0,0 km/h (0 Bft) W-SW 240 0 min
20.06.2018 03:20 18,9 C 18,8 C 10,8 C 80 % 85 % 1020,7 hPa 0,0 l/m 0,0 km/h (0 Bft) S-SW 210 0 min
20.06.2018 03:15 18,9 C 18,8 C 10,8 C 80 % 84 % 1020,7 hPa 0,0 l/m 0,0 km/h (0 Bft) S 170 0 min
20.06.2018 03:10 18,9 C 18,8 C 10,8 C 80 % 84 % 1020,7 hPa 0,0 l/m 0,0 km/h (0 Bft) S-SW 195 0 min
20.06.2018 03:05 18,9 C 18,8 C 10,8 C 79 % 84 % 1020,7 hPa 0,0 l/m 1,8 km/h (1 Bft) SO 130 0 min
20.06.2018 03:00 18,9 C 18,8 C 10,8 C 79 % 84 % 1020,7 hPa 0,0 l/m 1,8 km/h (1 Bft) SO 130 0 min
20.06.2018 02:55 18,9 C 18,8 C 10,8 C 79 % 84 % 1020,7 hPa 0,0 l/m 1,8 km/h (1 Bft) SO 130 0 min
20.06.2018 02:50 18,9 C 18,8 C 10,8 C 80 % 84 % 1019,7 hPa 0,0 l/m 2,4 km/h (1 Bft) S-SO 150 0 min
20.06.2018 02:45 18,9 C 18,7 C 10,8 C 80 % 84 % 1019,7 hPa 0,0 l/m 2,4 km/h (1 Bft) S 170 0 min
20.06.2018 02:40 19,0 C 18,7 C 10,8 C 79 % 84 % 1019,7 hPa 0,0 l/m 3,6 km/h (1 Bft) S-SW 200 0 min
20.06.2018 02:35 18,9 C 18,6 C 10,8 C 79 % 85 % 1020,7 hPa 0,0 l/m 0,0 km/h (0 Bft) S 175 0 min
20.06.2018 02:30 18,9 C 18,6 C 10,8 C 79 % 85 % 1020,7 hPa 0,0 l/m 0,0 km/h (0 Bft) S-SO 155 0 min
20.06.2018 02:25 18,9 C 18,6 C 10,8 C 79 % 84 % 1020,7 hPa 0,0 l/m 0,0 km/h (0 Bft) SO 145 0 min
20.06.2018 02:20 18,9 C 18,6 C 10,8 C 79 % 84 % 1020,7 hPa 0,0 l/m 0,0 km/h (0 Bft) SO 140 0 min
20.06.2018 02:15 18,9 C 18,6 C 10,8 C 79 % 84 % 1020,7 hPa 0,0 l/m 0,0 km/h (0 Bft) S-SW 205 0 min
20.06.2018 02:10 18,9 C 18,6 C 10,8 C 79 % 84 % 1020,7 hPa 0,0 l/m 0,0 km/h (0 Bft) SW 225 0 min
20.06.2018 02:05 18,9 C 18,7 C 10,8 C 79 % 84 % 1020,7 hPa 0,0 l/m 0,0 km/h (0 Bft) SW 225 0 min
20.06.2018 02:00 19,0 C 18,7 C 10,8 C 79 % 84 % 1020,7 hPa 0,0 l/m 0,0 km/h (0 Bft) SW 225 0 min
20.06.2018 01:55 19,0 C 18,7 C 10,8 C 79 % 84 % 1020,7 hPa 0,0 l/m 0,0 km/h (0 Bft) S 190 0 min
20.06.2018 01:50 19,0 C 18,7 C 10,8 C 79 % 83 % 1021,7 hPa 0,0 l/m 0,0 km/h (0 Bft) S 190 0 min
20.06.2018 01:45 19,1 C 18,7 C 10,8 C 79 % 83 % 1021,7 hPa 0,0 l/m 0,0 km/h (0 Bft) S 190 0 min
20.06.2018 01:40 19,1 C 18,8 C 10,8 C 78 % 83 % 1021,7 hPa 0,0 l/m 0,0 km/h (0 Bft) S 185 0 min
20.06.2018 01:35 19,2 C 18,8 C 10,8 C 78 % 83 % 1020,7 hPa 0,0 l/m 0,0 km/h (0 Bft) SW 215 0 min
20.06.2018 01:30 19,2 C 18,8 C 10,8 C 77 % 82 % 1020,7 hPa 0,0 l/m 0,0 km/h (0 Bft) S 180 0 min
20.06.2018 01:25 19,2 C 18,9 C 10,8 C 77 % 82 % 1020,7 hPa 0,0 l/m 0,0 km/h (0 Bft) S 180 0 min
20.06.2018 01:20 19,3 C 19,0 C 10,8 C 77 % 82 % 1020,7 hPa 0,0 l/m 0,0 km/h (0 Bft) S 170 0 min
20.06.2018 01:15 19,4 C 19,0 C 10,8 C 76 % 82 % 1020,7 hPa 0,0 l/m 0,0 km/h (0 Bft) SW 235 0 min
20.06.2018 01:10 19,4 C 19,0 C 10,8 C 76 % 82 % 1020,7 hPa 0,0 l/m 0,0 km/h (0 Bft) W-SW 240 0 min
20.06.2018 01:05 19,4 C 19,0 C 10,8 C 76 % 82 % 1020,7 hPa 0,0 l/m 0,0 km/h (0 Bft) S-SW 205 0 min
20.06.2018 01:00 19,4 C 19,0 C 10,8 C 77 % 82 % 1020,7 hPa 0,0 l/m 0,0 km/h (0 Bft) S-SW 195 0 min
20.06.2018 00:55 19,4 C 19,0 C 10,8 C 77 % 82 % 1020,7 hPa 0,0 l/m 0,0 km/h (0 Bft) S-SW 205 0 min
20.06.2018 00:50 19,4 C 19,0 C 10,8 C 77 % 82 % 1020,7 hPa 0,0 l/m 0,0 km/h (0 Bft) W-SW 255 0 min
20.06.2018 00:45 19,4 C 19,1 C 10,8 C 76 % 82 % 1020,7 hPa 0,0 l/m 0,0 km/h (0 Bft) W 280 0 min
20.06.2018 00:40 19,4 C 19,1 C 10,8 C 76 % 82 % 1020,7 hPa 0,0 l/m 0,0 km/h (0 Bft) W 280 0 min
20.06.2018 00:35 19,4 C 19,2 C 10,8 C 76 % 82 % 1020,7 hPa 0,0 l/m 0,0 km/h (0 Bft) W-SW 250 0 min
20.06.2018 00:30 19,4 C 19,2 C 10,8 C 76 % 82 % 1020,7 hPa 0,0 l/m 0,0 km/h (0 Bft) W-NW 285 0 min
20.06.2018 00:25 19,4 C 19,2 C 10,8 C 76 % 82 % 1020,7 hPa 0,0 l/m 0,0 km/h (0 Bft) W 280 0 min
20.06.2018 00:20 19,4 C 19,2 C 10,8 C 76 % 82 % 1020,7 hPa 0,0 l/m 0,0 km/h (0 Bft) W 280 0 min
20.06.2018 00:15 19,4 C 19,2 C 10,8 C 76 % 82 % 1020,7 hPa 0,0 l/m 0,0 km/h (0 Bft) W 280 0 min
20.06.2018 00:10 19,5 C 19,2 C 10,8 C 76 % 82 % 1020,7 hPa 0,0 l/m 0,0 km/h (0 Bft) W 280 0 min
20.06.2018 00:05 19,5 C 19,2 C 10,8 C 76 % 82 % 1021,7 hPa 0,0 l/m 0,0 km/h (0 Bft) W-NW 285 0 min
20.06.2018 00:00 19,6 C 19,3 C 10,8 C 76 % 82 % 1021,7 hPa 0,0 l/m 0,0 km/h (0 Bft) W 265 0 min
_ Min-Zeit 04:55 04:30 00:00 00:00 00:00 06:25 - 00:00 - - -
Minimum _ 18,4 C 18,4 C 10,8 C 76 % 82 % 1018,7 hPa - 0,0 km/h (0 Bft) - - -
_ Max-Zeit 00:00 00:00 00:00 06:25 04:30 01:45 00:00 07:30 - - 00:00
Maximum _ 19,6 C 19,3 C 10,8 C 82 % 86 % 1021,7 hPa 0,0 l/m 7,3 km/h
SW (2 Bft)
- - 0 min
Durchschnitt _ 18,9 C 18,7 C 10,8 C 80 % 84 % 1020,2 hPa #0,0 l/m 2,3 km/h (1 Bft) SW - #0 min.